Regional Weather Roundup
Issued by NWS

Home | Current Version | Previous Version | Graphics & Text | Print | Product List | Glossary On
Versions: 1 2 3 4 5 6 7 8 9 10 11 12 13 14 15 16 17 18 19 20 21 22 23 24 25 26 27 28 29 30 31 32 33 34 35 36 37 38 39 40 41 42 43 44 45 46 47 48 49 50
000
ASUS45 KCYS 202110
RWRWY

WYOMING REGIONAL WEATHER ROUNDUP
NATIONAL WEATHER SERVICE CHEYENNE WY
300 PM MDT SAT SEP 20 2014

NOTE:  "FAIR" INDICATES FEW OR NO CLOUDS BELOW 12,000 FEET
WITH NO SIGNIFICANT WEATHER AND/OR OBSTRUCTIONS TO VISIBILITY.

WYZ001-202200-
YELLOWSTONE NATIONAL PARK

CITY           SKY/WX    TMP DP  RH WIND       PRES   REMARKS
LK YELLOWSTONE   N/A     63  38  39 VRB3      30.42F
W YELLOWSTONE  NOT AVBL

$$
WYZ002>013-054>058-071-098>099-202200-
NORTHERN WYOMING

CITY           SKY/WX    TMP DP  RH WIND       PRES   REMARKS
JACKSON        SUNNY     73  39  29 SW7       30.30F
CODY             N/A    N/A N/A N/A MISG        N/A
GREYBULL       SUNNY     78  37  22 NW6       30.21F
WORLAND        SUNNY     77  39  25 N7        30.23F
SHERIDAN       SUNNY     73  41  31 N10       30.26S
BUFFALO        SUNNY     70  41  34 N17G25    30.30S
GILLETTE       SUNNY     72  38  29 N21G28    30.25R
HULETT         FAIR      72  36  26 MISG      30.26
NEWCASTLE      FAIR      73  32  21 NW20G29   30.22

$$
WYZ014>020-022>026-101>103-202200-
CENTRAL WYOMING

CITY           SKY/WX    TMP DP  RH WIND       PRES   REMARKS
BIG PINEY      SUNNY     75  31  19 VRB6      30.33F
PINEDALE       CLEAR     73  28  19 CALM      30.34F
DUBOIS         FAIR      70  36  28 SE15      30.33S
LANDER         SUNNY     76  39  26 N7        30.25F
RIVERTON       SUNNY     75  40  28 MISG      30.27F
CASPER         SUNNY     78  38  23 N12       30.27S
DOUGLAS        SUNNY     78  40  25 N16G23    30.26S

$$
WYZ021-027>030-104>119-202200-
SOUTHERN WYOMING

CITY           SKY/WX    TMP DP  RH WIND       PRES   REMARKS
EVANSTON       SUNNY     77  26  15 N12       30.32F
KEMMERER       CLEAR     72  32  23 SE7       30.35F
FORT BRIDGER   FAIR      74  31  20 NE3       30.36F
ROCK SPRINGS   NOT AVBL
DIXON          FAIR      78  36  22 W7        30.31F
RAWLINS        SUNNY     75  27  17 VRB3      30.32F
SARATOGA       FAIR      73  30  20 NW6       30.33F
LARAMIE        SUNNY     74  34  23 VRB6G16   30.33F
CHEYENNE       MOSUNNY   79  41  25 NE10      30.27F
TORRINGTON     SUNNY     82  44  26 N7G20     30.17F
PINE BLUFFS    FAIR      79  43  27 CALM      30.23S

$$



USA.gov is the U.S. government's official web portal to all federal, state and local government web resources and services.